This is the latest recevied weather packets stored in our database for station/object SQ9NFI-4. If no packets are shown the sender has not sent any weather packets the latest 10 day(s).
| Time | Temp. | Humidity | Pressure | Rain* | Wind** | Luminosity | Snow |
|---|---|---|---|---|---|---|---|
| 1777968039 | 25° C | 26% | 1011.5 hPa | 0 mm | - | 523 W/m² | - |
| 1777967739 | 24.44° C | 28% | 1011.5 hPa | 0 mm | - | 525 W/m² | - |
| 1777967439 | 25° C | 28% | 1011.5 hPa | 0 mm | - | 502 W/m² | - |
| 1777967139 | 25° C | 28% | 1011.5 hPa | 0 mm | - | 502 W/m² | - |
| 1777966839 | 24.44° C | 27% | 1011.5 hPa | 0 mm | - | 502 W/m² | - |
| 1777966539 | 24.44° C | 29% | 1011.5 hPa | 0 mm | - | 464 W/m² | - |
| 1777966239 | 24.44° C | 31% | 1011.5 hPa | 0 mm | - | 475 W/m² | - |
| 1777965939 | 23.89° C | 31% | 1011.5 hPa | 0 mm | - | 474 W/m² | - |
| 1777965639 | 23.89° C | 31% | 1011.5 hPa | 0 mm | - | 502 W/m² | - |
| 1777965339 | 24.44° C | 30% | 1011.5 hPa | 0 mm | - | 483 W/m² | - |
| 1777965039 | 23.33° C | 32% | 1011.5 hPa | 0 mm | - | 458 W/m² | - |
| 1777964439 | 23.33° C | 32% | 1011.5 hPa | 0 mm | - | 435 W/m² | - |
| 1777964139 | 22.78° C | 32% | 1011.5 hPa | 0 mm | - | 398 W/m² | - |
| 1777963839 | 22.78° C | 31% | 1011.5 hPa | 0 mm | - | 394 W/m² | - |
| 1777963539 | 22.78° C | 30% | 1011.5 hPa | 0 mm | - | 296 W/m² | - |
| 1777963239 | 22.78° C | 31% | 1011.5 hPa | 0 mm | - | 373 W/m² | - |
| 1777962939 | 22.22° C | 29% | 1011.9 hPa | 0 mm | - | 313 W/m² | - |
| 1777962639 | 22.22° C | 31% | 1011.9 hPa | 0 mm | - | 324 W/m² | - |
| 1777962339 | 21.67° C | 29% | 1011.9 hPa | 0 mm | - | 309 W/m² | - |
| 1777962039 | 21.67° C | 30% | 1011.9 hPa | 0 mm | - | 292 W/m² | - |
| 1777961805 | 21.67° C | 31% | 1011.9 hPa | 0 mm | - | 234 W/m² | - |
| 1777961505 | 21.67° C | 32% | 1011.9 hPa | 0 mm | - | 269 W/m² | - |
| 1777961205 | 21.11° C | 31% | 1011.9 hPa | 0 mm | - | 262 W/m² | - |
| 1777960905 | 21.11° C | 32% | 1011.9 hPa | 0 mm | - | 240 W/m² | - |
| 1777960605 | 21.11° C | 34% | 1011.9 hPa | 0 mm | - | 237 W/m² | - |
* Rain latest hour (hover to see other rain measurements)
** Current wind speed in m/s (hover to see current wind gust speed)